Simultaneous Nadir Overpasses (SNOs) Predictions

Prediction of SNOs between AURA and NPP Satellite Orbit:

Table of predicted SNOs for the next 14.0 days since TLE Epoch: 5/13/2012
Index Date (AURA) Time (AURA) AURA Lat,Lon Date (NPP) Time (NPP) NPP Lat,Lon Distance(km) Time Diff (sec)
1 05/13/2012 12:14:45 79.76,-105.08 05/13/2012 12:14:08 79.77,-105.02 1.14 37
2 05/13/2012 13:04:07 -79.95, 64.02 05/13/2012 13:04:47 -79.95, 64.09 1.28 40
3 05/16/2012 04:31:13 79.79, 10.98 05/16/2012 04:31:00 79.79, 10.97 0.30 13
4 05/16/2012 05:20:35 -79.97,-179.90 05/16/2012 05:21:39 -79.98,-179.89 0.31 64
5 05/18/2012 19:58:21 -79.61, -42.12 05/18/2012 19:57:14 -79.60, -42.22 2.00 67
6 05/18/2012 20:47:39 79.89, 127.64 05/18/2012 20:47:49 79.90, 127.78 3.03 10
7 05/21/2012 12:14:46 -79.72, 74.56 05/21/2012 12:14:02 -79.71, 74.54 0.56 44
8 05/21/2012 13:04:07 79.89,-116.50 05/21/2012 13:04:41 79.88,-116.61 2.25 34
9 05/24/2012 04:31:14 -79.76,-169.25 05/24/2012 04:30:53 -79.76,-169.30 1.07 21
10 05/24/2012 05:20:35 79.92, -0.31 05/24/2012 05:21:32 79.92, -0.46 3.04 57
11 05/26/2012 19:59:45 75.84, 120.78 05/26/2012 19:58:32 76.09, 119.24 49.56 73




NCC Satellite Simultaneous Nadir Overpasses (SNOs) Prediction Service
